Location: ????
(33.1659°N, 35.6604°E)
Time: 14:51:47
(UTC+00:00)

CZ-2C R/B - Pass Details

Date: 20 September 2019
Orbit: 639 x 705 km, 98.4° (Epoch: 20 October)

Event Time Altitude Azimuth Distance (km) Brightness Sun altitude
Rises 16:16:55 0° 26° (NNE) 2,955 6.8 -9.1°
Reaches altitude 10° 16:19:24 10° 38° (NE) 2,037 5.9 -9.6°
Maximum altitude 16:23:13 28° 98° (E) 1,205 4.5 -10.4°
Drops below altitude 10° 16:26:59 10° 157° (SSE) 2,023 5.9 -11.1°
Sets 16:29:26 0° 169° (S) 2,931 6.8 -11.7°
